Location: Newark
(49.8969°N, 3.3422°E)
Time: 23:47:02
(UTC+00:00)

deb Explorer IX - Pass Details

Date: 27 January 2020
Orbit: 549 x 1099 km, 38.8° (Epoch: 19 February)

Event Time Altitude Azimuth Distance (km) Brightness Sun altitude
Rises 00:18:58 0° 260° (W) 3,875 - -58.5°
Reaches altitude 10° 00:22:02 10° 251° (WSW) 2,942 - -58.4°
Maximum altitude 00:28:11 30° 193° (SSW) 1,834 - -58.2°
Drops below altitude 10° 00:34:12 10° 135° (SE) 2,869 - -58.0°
Sets 00:37:09 0° 125° (SE) 3,764 - -57.8°
